LHA871 EDDK-LICC

Flight info

Callsign LHA871
Flight time N/A
Altitude 37000
Route KUMIK Y854 BOMBI DCT GIGET DCT ABUKA DCT TEDGO/N0452F390 L607 UTABA M738 NATAG DCT ADOSA DCT PELEN Q789 UXUTA
Aircraft A320/M-SDE1E2FGIJ1RWYZE3/LB1

Departure

Time 2026-05-07 14:49
Airport Cologne Bonn Airport (EDDK)

Arrival

Time N/A
Airport Catania-Fontanarossa Airport (LICC)
Time Latitude Longitude Altitude Speed Heading
2026-05-07 14:01 50.88105 7.12093 232 ft 0 kts 216°
2026-05-07 14:29 50.88116 7.12105 232 ft 3 kts 219°
2026-05-07 14:29 50.88134 7.12129 232 ft 2 kts 216°
2026-05-07 14:29 50.88151 7.12146 232 ft 3 kts 195°
2026-05-07 14:29 50.88173 7.12147 232 ft 3 kts 149°
2026-05-07 14:30 50.88189 7.12123 233 ft 2 kts 126°
2026-05-07 14:30 50.88190 7.12121 232 ft 0 kts 126°
2026-05-07 14:39 50.88186 7.12130 234 ft 6 kts 126°
2026-05-07 14:39 50.88126 7.12263 233 ft 17 kts 125°
2026-05-07 14:40 50.88060 7.12405 235 ft 15 kts 131°
2026-05-07 14:40 50.87987 7.12514 232 ft 14 kts 138°
2026-05-07 14:40 50.87916 7.12604 233 ft 12 kts 158°
2026-05-07 14:40 50.87834 7.12620 233 ft 11 kts 161°
2026-05-07 14:41 50.87774 7.12690 234 ft 11 kts 138°
2026-05-07 14:41 50.87700 7.12798 232 ft 19 kts 137°
2026-05-07 14:41 50.87589 7.12958 232 ft 22 kts 137°
2026-05-07 14:41 50.87478 7.13118 232 ft 22 kts 139°
2026-05-07 14:42 50.87368 7.13278 232 ft 22 kts 137°
2026-05-07 14:42 50.87254 7.13441 234 ft 22 kts 136°
2026-05-07 14:42 50.87147 7.13597 238 ft 19 kts 139°
2026-05-07 14:42 50.87059 7.13726 241 ft 16 kts 137°
2026-05-07 14:43 50.86987 7.13831 244 ft 13 kts 137°
2026-05-07 14:43 50.86925 7.13919 250 ft 14 kts 138°
2026-05-07 14:43 50.86820 7.14072 255 ft 24 kts 137°
2026-05-07 14:43 50.86711 7.14172 257 ft 15 kts 141°
2026-05-07 14:44 50.86644 7.14266 261 ft 12 kts 137°
2026-05-07 14:44 50.86558 7.14393 262 ft 22 kts 138°
2026-05-07 14:44 50.86423 7.14586 271 ft 30 kts 137°
2026-05-07 14:44 50.86255 7.14830 280 ft 34 kts 137°
2026-05-07 14:45 50.86083 7.15080 288 ft 33 kts 137°
2026-05-07 14:45 50.85914 7.15324 296 ft 33 kts 138°
2026-05-07 14:45 50.85748 7.15564 301 ft 32 kts 137°
2026-05-07 14:45 50.85587 7.15796 305 ft 27 kts 137°
2026-05-07 14:46 50.85492 7.15941 308 ft 14 kts 122°
2026-05-07 14:46 50.85521 7.16065 308 ft 13 kts 47°
2026-05-07 14:46 50.85581 7.16169 308 ft 13 kts 47°
2026-05-07 14:46 50.85611 7.16221 308 ft 0 kts 47°
2026-05-07 14:47 50.85625 7.16245 308 ft 5 kts 47°
2026-05-07 14:48 50.85650 7.16287 308 ft 6 kts 45°
2026-05-07 14:48 50.85698 7.16304 308 ft 9 kts 343°
2026-05-07 14:48 50.85759 7.16226 307 ft 15 kts 318°
2026-05-07 14:48 50.85960 7.15946 300 ft 74 kts 318°
2026-05-07 14:49 50.86509 7.15155 280 ft 136 kts 317°
2026-05-07 14:49 50.87305 7.14018 599 ft 155 kts 320°
2026-05-07 14:49 50.88156 7.12898 1238 ft 167 kts 324°
2026-05-07 14:49 50.89234 7.12004 1804 ft 182 kts 348°
2026-05-07 14:50 50.90524 7.12065 2347 ft 194 kts 16°
2026-05-07 14:50 50.91823 7.12842 2945 ft 207 kts 20°
2026-05-07 14:50 50.93134 7.13866 3654 ft 215 kts 37°
2026-05-07 14:50 50.94100 7.15747 4206 ft 234 kts 62°
2026-05-07 14:51 50.94855 7.18188 4684 ft 258 kts 62°
2026-05-07 14:51 50.95670 7.20786 5492 ft 266 kts 62°
2026-05-07 14:51 50.96503 7.23438 6391 ft 271 kts 62°
2026-05-07 14:51 50.97356 7.26133 7244 ft 276 kts 62°
2026-05-07 14:52 50.98227 7.28868 8096 ft 280 kts 62°
2026-05-07 14:52 50.99113 7.31653 8956 ft 285 kts 62°
2026-05-07 14:52 51.00010 7.34488 9841 ft 290 kts 63°
2026-05-07 14:52 51.00872 7.37429 10451 ft 304 kts 70°
2026-05-07 14:53 51.01370 7.40818 10722 ft 328 kts 83°
2026-05-07 14:53 51.01376 7.44553 11059 ft 347 kts 96°
2026-05-07 14:53 51.00878 7.48343 11720 ft 354 kts 107°
2026-05-07 14:53 51.00139 7.52101 12467 ft 360 kts 107°
2026-05-07 14:54 50.99393 7.55926 13262 ft 365 kts 107°
2026-05-07 14:54 50.98639 7.59791 14040 ft 368 kts 107°
2026-05-07 14:54 50.97883 7.63648 14696 ft 373 kts 107°
2026-05-07 14:54 50.97097 7.67646 15359 ft 377 kts 108°
2026-05-07 14:55 50.96321 7.71587 16015 ft 380 kts 108°
2026-05-07 14:55 50.95518 7.75655 16726 ft 382 kts 108°
2026-05-07 14:55 50.94717 7.79639 17347 ft 386 kts 110°
2026-05-07 14:55 50.93595 7.83521 17960 ft 390 kts 121°
2026-05-07 14:56 50.92116 7.87138 18583 ft 392 kts 125°
2026-05-07 14:56 50.90597 7.90746 19177 ft 395 kts 124°
2026-05-07 14:56 50.89069 7.94381 19786 ft 398 kts 124°
2026-05-07 14:56 50.87527 7.98051 20356 ft 402 kts 124°
2026-05-07 14:57 50.85973 8.01755 20941 ft 406 kts 124°
2026-05-07 14:57 50.84294 8.05369 21482 ft 409 kts 131°
2026-05-07 14:57 50.82263 8.08517 22046 ft 411 kts 141°
2026-05-07 14:57 50.79920 8.11125 22554 ft 413 kts 148°
2026-05-07 14:58 50.77484 8.13578 23090 ft 416 kts 148°
2026-05-07 14:58 50.75035 8.16040 23613 ft 418 kts 148°
2026-05-07 14:58 50.72573 8.18515 24034 ft 421 kts 148°
2026-05-07 14:58 50.70094 8.21003 24448 ft 424 kts 148°
2026-05-07 14:59 50.67599 8.23504 24871 ft 426 kts 148°
2026-05-07 14:59 50.65092 8.26016 25277 ft 428 kts 148°
2026-05-07 14:59 50.62569 8.28545 25647 ft 431 kts 148°
2026-05-07 14:59 50.60037 8.31086 26044 ft 433 kts 148°
2026-05-07 15:00 50.57485 8.33640 26405 ft 436 kts 148°
2026-05-07 15:00 50.54916 8.36204 26753 ft 439 kts 148°
2026-05-07 15:00 50.52329 8.38779 27120 ft 441 kts 148°
2026-05-07 15:00 50.49728 8.41366 27498 ft 443 kts 148°
2026-05-07 15:01 50.47121 8.43962 27859 ft 445 kts 148°
2026-05-07 15:01 50.44504 8.46569 28208 ft 447 kts 148°
2026-05-07 15:01 50.41875 8.49179 28542 ft 448 kts 148°
2026-05-07 15:01 50.39230 8.51794 28866 ft 451 kts 148°
2026-05-07 15:02 50.36590 8.54340 29176 ft 452 kts 150°
2026-05-07 15:02 50.33814 8.56813 29479 ft 454 kts 152°
2026-05-07 15:02 50.31059 8.59112 29746 ft 456 kts 153°
2026-05-07 15:02 50.28236 8.61392 30007 ft 458 kts 154°
2026-05-07 15:03 50.25395 8.63671 30241 ft 460 kts 154°
2026-05-07 15:03 50.22551 8.65973 30467 ft 461 kts 153°
2026-05-07 15:03 50.19712 8.68306 30756 ft 461 kts 153°
2026-05-07 15:03 50.16890 8.70653 31039 ft 460 kts 153°
2026-05-07 15:04 50.14060 8.73020 31325 ft 460 kts 153°
2026-05-07 15:04 50.11239 8.75378 31608 ft 460 kts 153°
2026-05-07 15:04 50.08304 8.77347 31884 ft 459 kts 163°
2026-05-07 15:04 50.05217 8.78556 32157 ft 457 kts 172°
2026-05-07 15:05 50.02054 8.78984 32439 ft 455 kts 181°
2026-05-07 15:05 49.98905 8.78636 32711 ft 454 kts 189°
2026-05-07 15:05 49.95774 8.77967 32989 ft 454 kts 189°
2026-05-07 15:05 49.92645 8.77313 33269 ft 454 kts 189°
2026-05-07 15:06 49.89508 8.76665 33561 ft 454 kts 189°
2026-05-07 15:06 49.86376 8.76022 33861 ft 454 kts 189°
2026-05-07 15:06 49.83248 8.75377 34129 ft 454 kts 189°
2026-05-07 15:06 49.80118 8.74731 34378 ft 453 kts 189°
2026-05-07 15:07 49.76995 8.74088 34642 ft 453 kts 189°
2026-05-07 15:07 49.73912 8.73452 34894 ft 452 kts 189°
2026-05-07 15:07 49.70796 8.72809 35139 ft 452 kts 189°
2026-05-07 15:07 49.67677 8.72170 35388 ft 451 kts 189°
2026-05-07 15:08 49.64565 8.71541 35633 ft 451 kts 189°
2026-05-07 15:08 49.61457 8.70916 35850 ft 451 kts 189°
2026-05-07 15:08 49.58352 8.70294 36078 ft 450 kts 189°
2026-05-07 15:08 49.55248 8.69672 36302 ft 449 kts 189°
2026-05-07 15:09 49.52150 8.69046 36519 ft 449 kts 189°
2026-05-07 15:09 49.49031 8.68742 36729 ft 451 kts 180°
2026-05-07 15:09 49.45906 8.69243 36936 ft 453 kts 170°
2026-05-07 15:09 49.42861 8.70541 37036 ft 456 kts 161°
2026-05-07 15:10 49.37052 8.74515 37051 ft 457 kts 158°
2026-05-07 15:10 49.31254 8.78542 37052 ft 458 kts 158°
2026-05-07 15:11 49.25453 8.82568 37048 ft 458 kts 158°
2026-05-07 15:11 49.19646 8.86576 37048 ft 458 kts 158°
2026-05-07 15:12 49.13837 8.90564 37034 ft 458 kts 158°
2026-05-07 15:12 49.08020 8.94551 37036 ft 458 kts 158°
2026-05-07 15:13 49.02206 8.98542 37051 ft 459 kts 158°
2026-05-07 15:13 48.96387 9.02526 37051 ft 459 kts 158°
2026-05-07 15:14 48.90560 9.06503 37040 ft 459 kts 158°
2026-05-07 15:14 48.84733 9.10462 37042 ft 459 kts 158°
2026-05-07 15:15 48.78933 9.14382 37041 ft 459 kts 159°
2026-05-07 15:15 48.73098 9.18320 37039 ft 459 kts 158°
2026-05-07 15:16 48.67265 9.22265 37037 ft 459 kts 159°
2026-05-07 15:16 48.61429 9.26194 37042 ft 459 kts 160°
2026-05-07 15:17 48.55495 9.29725 37045 ft 458 kts 163°
2026-05-07 15:17 48.49485 9.32935 37041 ft 458 kts 163°
2026-05-07 15:18 48.43492 9.36151 37042 ft 457 kts 163°
2026-05-07 15:18 48.37519 9.39473 37041 ft 458 kts 162°
2026-05-07 15:19 48.31553 9.42815 37040 ft 458 kts 162°
2026-05-07 15:19 48.25580 9.46138 37021 ft 458 kts 163°
2026-05-07 15:20 48.19531 9.49038 37024 ft 456 kts 167°
2026-05-07 15:20 48.13411 9.51539 37033 ft 456 kts 168°
2026-05-07 15:21 48.07290 9.54034 37034 ft 456 kts 167°
2026-05-07 15:21 48.01324 9.57311 37030 ft 461 kts 154°
2026-05-07 15:22 47.96021 9.62804 37037 ft 465 kts 147°
2026-05-07 15:22 47.90788 9.68463 37039 ft 465 kts 147°
2026-05-07 15:23 47.85542 9.74093 37044 ft 465 kts 147°
2026-05-07 15:23 47.80297 9.79723 37023 ft 465 kts 147°
2026-05-07 15:24 47.75933 9.84400 37027 ft 465 kts 147°
2026-05-07 15:24 47.69823 9.90924 37035 ft 466 kts 148°
2026-05-07 15:25 47.65412 9.95621 37041 ft 466 kts 148°
2026-05-07 15:25 47.60150 10.01232 37044 ft 466 kts 147°
2026-05-07 15:26 47.54879 10.06836 37034 ft 466 kts 148°
2026-05-07 15:26 47.49602 10.12421 37032 ft 467 kts 148°
2026-05-07 15:27 47.44349 10.17964 37040 ft 467 kts 148°
2026-05-07 15:27 47.38944 10.23233 37043 ft 465 kts 152°
2026-05-07 15:28 47.33398 10.28141 37027 ft 465 kts 153°
2026-05-07 15:28 47.27832 10.33035 37037 ft 466 kts 153°
2026-05-07 15:29 47.22294 10.37996 37029 ft 465 kts 152°
2026-05-07 15:29 47.16791 10.42967 37037 ft 464 kts 152°
2026-05-07 15:30 47.11272 10.47916 37003 ft 465 kts 153°
2026-05-07 15:30 47.05685 10.52645 37005 ft 460 kts 161°
2026-05-07 15:31 46.99671 10.55605 37000 ft 456 kts 167°
2026-05-07 15:31 46.93605 10.58333 36990 ft 455 kts 167°
2026-05-07 15:32 46.87561 10.61079 36977 ft 455 kts 167°
2026-05-07 15:32 46.81485 10.63584 36979 ft 453 kts 171°
2026-05-07 15:33 46.75342 10.65609 36987 ft 453 kts 173°
2026-05-07 15:33 46.69175 10.67558 37001 ft 454 kts 172°
2026-05-07 15:34 46.63030 10.69623 36988 ft 453 kts 172°
2026-05-07 15:34 46.56884 10.71737 37020 ft 454 kts 172°
2026-05-07 15:35 46.50733 10.73844 37025 ft 455 kts 172°
2026-05-07 15:35 46.44579 10.75939 37002 ft 454 kts 172°
2026-05-07 15:36 46.38415 10.78020 37032 ft 455 kts 172°
2026-05-07 15:36 46.32254 10.80101 37052 ft 454 kts 172°
2026-05-07 15:37 46.26103 10.82164 37051 ft 454 kts 172°
2026-05-07 15:37 46.19994 10.84212 37058 ft 454 kts 172°
2026-05-07 15:38 46.13800 10.86282 37061 ft 454 kts 172°
2026-05-07 15:38 46.07696 10.88319 37048 ft 453 kts 172°
2026-05-07 15:39 46.01670 10.90328 37021 ft 454 kts 173°
2026-05-07 15:39 45.95563 10.92362 37021 ft 453 kts 173°
2026-05-07 15:40 45.89850 10.94258 37030 ft 453 kts 173°
2026-05-07 15:40 45.83861 10.96231 36986 ft 453 kts 173°
2026-05-07 15:41 45.77746 10.98255 36987 ft 453 kts 173°
2026-05-07 15:41 45.71604 11.00294 36996 ft 453 kts 173°
2026-05-07 15:42 45.65470 11.02320 36982 ft 453 kts 172°
2026-05-07 15:42 45.59469 11.05289 36977 ft 457 kts 166°
2026-05-07 15:43 45.53505 11.08445 36987 ft 457 kts 166°
2026-05-07 15:43 45.47548 11.11585 36991 ft 456 kts 166°
2026-05-07 15:44 45.41606 11.14725 36972 ft 456 kts 166°
2026-05-07 15:44 45.35668 11.17861 36984 ft 455 kts 166°